Location: Bouchavesnes-Bergen
(49.9859°N, 2.9203°E)
Time: 02:45:25
(UTC+00:00)

Cosmos 2082 Rocket - Pass Details

Date: 09 March 2021
Orbit: 834 x 853 km, 71.0° (Epoch: 16 April)

Event Time Altitude Azimuth Distance (km) Brightness Sun altitude
Exits shadow 04:23:58 12° 311° (NW) 2,364 4.2 -18.5°
Maximum altitude 04:26:00 14° 333° (NNW) 2,227 4.3 -18.2°
Drops below altitude 10° 04:28:50 10° 3° (N) 2,487 4.9 -17.7°
Sets 04:32:41 0° 29° (NNE) 3,421 6.0 -17.1°
